Location: Tierra del Sol
(32.6128°N, 116.3319°W)
Time: 17:26:22
(UTC-07:00)

Vanguard 1 Rocket - Visible Passes

Search period start: 23 October 2017 00:00
Search period end: 02 November 2017 00:00
Orbit: 655 x 4222 km, 34.3° (Epoch: 22 October)

Date Brightness Start Highest point End Pass type
(mag) Time Alt. Az. Time Alt. Az. Time Alt. Az.
23 Oct 11.0 02:38:04 15° SSE 02:41:01 16° SSE 02:47:49 10° ESE visible
23 Oct 9.5 04:56:27 10° SW 05:09:36 41° SSE 05:16:47 10° E visible
24 Oct 10.2 03:49:28 21° SSW 03:57:21 31° SSE 04:05:38 10° E visible
24 Oct 8.6 06:12:35 10° WSW 06:24:39 68° SSE 06:30:55 10° E visible
25 Oct 10.7 02:43:17 22° SSE 02:44:30 23° SSE 02:53:27 10° ESE visible
25 Oct 9.2 05:00:40 15° SW 05:12:58 52° SSE 05:20:29 10° E visible
26 Oct 11.2 01:36:58 12° SE 01:36:58 12° SE 01:38:55 10° ESE visible
26 Oct 9.9 03:54:21 30° SSW 04:00:43 40° SSE 04:09:38 10° E visible
26 Oct 8.4 06:15:23 10° WSW 06:27:59 80° SSE 06:34:25 10° ENE visible
27 Oct 10.5 02:47:54 31° SSE 02:47:54 31° SSE 02:58:01 10° E visible
27 Oct 9.0 05:05:15 20° SW 05:16:16 64° SSE 05:24:03 10° E visible
28 Oct 11.0 01:41:21 17° ESE 01:41:21 17° ESE 01:45:00 10° ESE visible
28 Oct 9.6 03:58:42 39° SSW 04:04:00 51° SSE 04:13:22 10° E visible
28 Oct 8.4 06:18:21 10° WSW 06:31:21 90° SSE 06:37:54 10° ENE visible
29 Oct 10.2 02:52:03 39° SE 02:52:03 39° SE 03:02:06 10° E visible
29 Oct 8.9 05:09:22 24° WSW 05:19:33 75° SSE 05:27:32 10° ENE visible
30 Oct 10.9 01:45:19 21° ESE 01:45:19 21° ESE 01:49:49 10° E visible
30 Oct 9.4 04:02:38 48° SSW 04:07:14 61° SSE 04:16:56 10° E visible
30 Oct 8.4 06:21:26 10° W 06:34:43 84° N 06:41:23 10° E visible
31 Oct11.500:38:30E00:38:30E00:00:39SSWvisible
31 Oct 10.0 02:55:50 48° SE 02:55:50 48° SE 03:05:52 10° E visible
31 Oct 8.8 05:13:09 27° WSW 05:22:50 85° SSE 05:31:00 10° ENE visible
01 Nov 10.7 01:48:57 25° ESE 01:48:57 25° ESE 01:54:01 10° E visible
01 Nov 9.3 04:06:16 55° SW 04:10:25 72° SSE 04:20:25 10° ENE visible
01 Nov 8.5 06:24:33 10° W 06:38:06 81° N 06:44:53 10° E visible
